Search the data

BODC Cruise Metadata Report for RV Lough Foyle (74LG) cruise LF1/89

Introduction

This report collates information from the BODC cruise inventory and oceanographic databases. It presents

Cruise Inventory Information

Long name RV Lough Foyle (74LG) cruise LF1/89
Short name LF1/89
Objectives and Narrative Water samples/ CTD profiles, including the Ellett Line. D1/1989
Ship RV Lough Foyle
Departure Port Dunstaffnage, United Kingdom
Departure Date 1989-05-05
Arrival Port Dunstaffnage, United Kingdom
Arrival Date 1989-05-11
Principal Scientist(s) David J Ellett (Dunstaffnage Marine Laboratory)
Responsible Organisation BAHCM
Associated Project(s)
IHB Sea Areas Visited Inner Seas off the West Coast of Scotland, North East Atlantic Ocean (limit 40W)
Marsden Squares Visited 181;245/181;455/181;456/181;457/181;458/181;459/181;466/181;467/181;468/181;479/182;3
Work Area Description Scottish Cont. Shelf/ Rockall Channel/ North Channel
Work Area Bounding Polygon 54N,15W; 60N,15W; 60N,5W; 54N,5W; 54N,15W
Southern Limit 54N
Northern Limit 60N
Western Limit 15W
Eastern Limit 5W

Cruise Inventory Datasets

Physical oceanography  
CTD stations Quantity: number of stations = 100
Description:  
Current meters Quantity: 1
Description: 2 recovered;100 days  
Water bottle stations Quantity: number of stations = 77
Description: S surface and bottom  
Chemical oceanography  
Isotopes Quantity: 10
Description: Cs  

Cruise Inventory Mooring/Buoy Operations

No information on datasets is currently available

Summary of BODC Data Holdings for the Cruise

National Oceanographic Database

Summary

# Series Instrument Description Parameters
100 CTD/STD cast Salinity of the water column
Temperature of the water column
Vertical spatial coordinates
1 Savonius rotor current meter Date and time
Horizontal velocity of the water column (currents)
Moored instrument depth
Reference numbers
Salinity of the water column
Temperature of the water column

Note: Parameter terms are taken from the BODC Parameter Discovery Vocabulary XML (SKOS)

Full List

BODC Reference Instrument Description Date/Time Location  
265728 CTD/STD cast 1989-05-05 12:02Z 56° 40' N, 6° 7' W Click for more
265741 CTD/STD cast 1989-05-05 13:51Z 56° 40' N, 6° 16' W Click for more
265753 CTD/STD cast 1989-05-05 14:50Z 56° 43' N, 6° 27' W Click for more
265765 CTD/STD cast 1989-05-05 16:33Z 56° 43' N, 6° 45' W Click for more
265777 CTD/STD cast 1989-05-05 17:45Z 56° 43' N, 7° 0' W Click for more
265789 CTD/STD cast 1989-05-05 19:36Z 56° 43' N, 7° 19' W Click for more
265790 CTD/STD cast 1989-05-05 20:26Z 56° 43' N, 7° 30' W Click for more
265808 CTD/STD cast 1989-05-05 21:18Z 56° 43' N, 7° 40' W Click for more
265821 CTD/STD cast 1989-05-05 22:55Z 56° 46' N, 8° 0' W Click for more
265833 CTD/STD cast 1989-05-06 00:42Z 56° 49' N, 8° 19' W Click for more
265845 CTD/STD cast 1989-05-06 01:40Z 56° 52' N, 8° 30' W Click for more
265857 CTD/STD cast 1989-05-06 03:29Z 56° 57' N, 8° 46' W Click for more
265869 CTD/STD cast 1989-05-06 04:34Z 57° 0' N, 9° 0' W Click for more
265870 CTD/STD cast 1989-05-06 05:55Z 57° 3' N, 9° 13' W Click for more
265882 CTD/STD cast 1989-05-06 07:06Z 57° 6' N, 9° 25' W Click for more
265894 CTD/STD cast 1989-05-06 08:58Z 57° 9' N, 9° 42' W Click for more
265901 CTD/STD cast 1989-05-06 11:36Z 57° 13' N, 10° 3' W Click for more
265913 CTD/STD cast 1989-05-06 14:02Z 57° 18' N, 10° 22' W Click for more
265925 CTD/STD cast 1989-05-06 16:23Z 57° 22' N, 10° 40' W Click for more
265937 CTD/STD cast 1989-05-06 18:13Z 57° 24' N, 10° 52' W Click for more
265949 CTD/STD cast 1989-05-06 19:29Z 57° 27' N, 11° 4' W Click for more
265950 CTD/STD cast 1989-05-06 20:40Z 57° 28' N, 11° 19' W Click for more
265962 CTD/STD cast 1989-05-06 21:56Z 57° 28' N, 11° 31' W Click for more
265974 CTD/STD cast 1989-05-07 00:18Z 57° 30' N, 11° 51' W Click for more
265986 CTD/STD cast 1989-05-07 03:04Z 57° 31' N, 12° 15' W Click for more
265998 CTD/STD cast 1989-05-07 05:35Z 57° 31' N, 12° 37' W Click for more
266001 CTD/STD cast 1989-05-07 07:14Z 57° 33' N, 12° 52' W Click for more
266013 CTD/STD cast 1989-05-07 08:15Z 57° 33' N, 13° 0' W Click for more
266025 CTD/STD cast 1989-05-07 09:39Z 57° 34' N, 13° 19' W Click for more
266037 CTD/STD cast 1989-05-07 10:49Z 57° 34' N, 13° 37' W Click for more
266049 CTD/STD cast 1989-05-07 16:08Z 56° 58' N, 12° 34' W Click for more
266050 CTD/STD cast 1989-05-08 03:02Z 56° 0' N, 9° 49' W Click for more
266062 CTD/STD cast 1989-05-08 04:53Z 55° 55' N, 9° 37' W Click for more
266074 CTD/STD cast 1989-05-08 06:21Z 55° 52' N, 9° 27' W Click for more
266086 CTD/STD cast 1989-05-08 07:44Z 55° 46' N, 9° 16' W Click for more
266098 CTD/STD cast 1989-05-08 09:43Z 55° 46' N, 8° 40' W Click for more
266105 CTD/STD cast 1989-05-08 11:58Z 55° 46' N, 8° 0' W Click for more
266117 CTD/STD cast 1989-05-08 13:14Z 55° 46' N, 7° 42' W Click for more
266129 CTD/STD cast 1989-05-08 14:10Z 55° 46' N, 7° 28' W Click for more
266130 CTD/STD cast 1989-05-08 15:05Z 55° 46' N, 7° 16' W Click for more
266142 CTD/STD cast 1989-05-08 16:01Z 55° 46' N, 7° 4' W Click for more
266154 CTD/STD cast 1989-05-08 16:43Z 55° 46' N, 6° 55' W Click for more
266166 CTD/STD cast 1989-05-08 17:26Z 55° 46' N, 6° 46' W Click for more
266178 CTD/STD cast 1989-05-08 18:04Z 55° 46' N, 6° 37' W Click for more
266191 CTD/STD cast 1989-05-08 18:35Z 55° 46' N, 6° 30' W Click for more
266209 CTD/STD cast 1989-05-08 19:30Z 55° 52' N, 6° 28' W Click for more
266210 CTD/STD cast 1989-05-08 20:10Z 55° 57' N, 6° 34' W Click for more
266222 CTD/STD cast 1989-05-08 20:54Z 56° 1' N, 6° 40' W Click for more
266234 CTD/STD cast 1989-05-08 21:44Z 56° 4' N, 6° 46' W Click for more
266246 CTD/STD cast 1989-05-08 22:39Z 56° 9' N, 6° 52' W Click for more
266258 CTD/STD cast 1989-05-08 23:38Z 56° 13' N, 6° 58' W Click for more
266271 CTD/STD cast 1989-05-09 00:32Z 56° 16' N, 7° 4' W Click for more
266283 CTD/STD cast 1989-05-09 05:13Z 56° 6' N, 5° 52' W Click for more
266295 CTD/STD cast 1989-05-09 05:43Z 56° 7' N, 5° 55' W Click for more
266302 CTD/STD cast 1989-05-09 06:20Z 56° 10' N, 5° 58' W Click for more
266314 CTD/STD cast 1989-05-09 06:58Z 56° 13' N, 6° 1' W Click for more
266326 CTD/STD cast 1989-05-09 07:38Z 56° 16' N, 6° 4' W Click for more
266338 CTD/STD cast 1989-05-09 13:59Z 55° 13' N, 6° 45' W Click for more
266351 CTD/STD cast 1989-05-09 14:46Z 55° 19' N, 6° 40' W Click for more
266363 CTD/STD cast 1989-05-09 15:32Z 55° 22' N, 6° 37' W Click for more
266375 CTD/STD cast 1989-05-09 16:18Z 55° 28' N, 6° 34' W Click for more
266387 CTD/STD cast 1989-05-09 17:02Z 55° 33' N, 6° 30' W Click for more
266399 CTD/STD cast 1989-05-09 17:43Z 55° 37' N, 6° 25' W Click for more
266406 CTD/STD cast 1989-05-09 18:22Z 55° 42' N, 6° 22' W Click for more
266418 CTD/STD cast 1989-05-09 20:50Z 55° 39' N, 6° 1' W Click for more
266431 CTD/STD cast 1989-05-09 21:19Z 55° 37' N, 5° 57' W Click for more
266443 CTD/STD cast 1989-05-09 21:45Z 55° 37' N, 5° 52' W Click for more
266455 CTD/STD cast 1989-05-09 22:11Z 55° 36' N, 5° 49' W Click for more
266467 CTD/STD cast 1989-05-09 22:40Z 55° 34' N, 5° 45' W Click for more
266479 CTD/STD cast 1989-05-10 01:01Z 55° 10' N, 6° 0' W Click for more
266480 CTD/STD cast 1989-05-10 01:34Z 55° 10' N, 5° 55' W Click for more
266492 CTD/STD cast 1989-05-10 02:07Z 55° 13' N, 5° 52' W Click for more
266511 CTD/STD cast 1989-05-10 02:38Z 55° 15' N, 5° 46' W Click for more
266523 CTD/STD cast 1989-05-10 03:17Z 55° 16' N, 5° 43' W Click for more
266535 CTD/STD cast 1989-05-10 04:06Z 55° 13' N, 5° 37' W Click for more
266547 CTD/STD cast 1989-05-10 04:54Z 55° 9' N, 5° 31' W Click for more
266559 CTD/STD cast 1989-05-10 05:39Z 55° 4' N, 5° 25' W Click for more
266560 CTD/STD cast 1989-05-10 06:24Z 55° 1' N, 5° 19' W Click for more
266572 CTD/STD cast 1989-05-10 07:04Z 54° 57' N, 5° 13' W Click for more
266584 CTD/STD cast 1989-05-10 10:00Z 54° 40' N, 5° 30' W Click for more
266596 CTD/STD cast 1989-05-10 10:27Z 54° 42' N, 5° 25' W Click for more
266603 CTD/STD cast 1989-05-10 11:07Z 54° 43' N, 5° 19' W Click for more
266615 CTD/STD cast 1989-05-10 11:45Z 54° 45' N, 5° 15' W Click for more
266627 CTD/STD cast 1989-05-10 12:24Z 54° 46' N, 5° 10' W Click for more
266639 CTD/STD cast 1989-05-10 12:58Z 54° 48' N, 5° 4' W Click for more
266640 CTD/STD cast 1989-05-10 15:31Z 55° 9' N, 5° 3' W Click for more
266652 CTD/STD cast 1989-05-10 16:08Z 55° 10' N, 5° 10' W Click for more
266664 CTD/STD cast 1989-05-10 16:37Z 55° 13' N, 5° 15' W Click for more
266676 CTD/STD cast 1989-05-10 17:24Z 55° 16' N, 5° 24' W Click for more
266688 CTD/STD cast 1989-05-10 17:51Z 55° 16' N, 5° 30' W Click for more
266707 CTD/STD cast 1989-05-10 18:25Z 55° 19' N, 5° 28' W Click for more
266719 CTD/STD cast 1989-05-10 18:47Z 55° 22' N, 5° 27' W Click for more
266720 CTD/STD cast 1989-05-10 19:33Z 55° 27' N, 5° 28' W Click for more
266732 CTD/STD cast 1989-05-10 20:15Z 55° 24' N, 5° 19' W Click for more
266744 CTD/STD cast 1989-05-10 20:56Z 55° 22' N, 5° 12' W Click for more
266756 CTD/STD cast 1989-05-10 21:29Z 55° 19' N, 5° 7' W Click for more
266768 CTD/STD cast 1989-05-10 21:54Z 55° 19' N, 5° 4' W Click for more
266781 CTD/STD cast 1989-05-10 22:44Z 55° 16' N, 4° 55' W Click for more
266793 CTD/STD cast 1989-05-10 23:14Z 55° 13' N, 4° 58' W Click for more
380277 CTD/STD cast 1989-05-10 11:01Z 54° 43' N, 5° 19' W Click for more
1804032 Savonius rotor current meter 1989-05-05 11:30Z to 1989-08-04 11:00Z 56° 37' N, 6° 24' W Click for more

Project Database

No data currently held for this cruise in the BODC Project Database

References

Track Charts

Track Chart

Reports

Cruise Report